Tracking 28096 objects as of 28-Sep-2023
HD Live streaming from Space Station
objects crossing your sky now

FLOCK 4X 33

Track FLOCK 4X 33 now!
10-day predictions


NORAD ID: 51055
Int'l Code: 2022-002BZ
Perigee: 458.0 km
Apogee: 465.2 km
Inclination: 97.4 °
Period: 93.7 minutes
Semi major axis: 6832 km
RCS: Unknown
Launch date: January 13, 2022
Source: United States (US)
Launch site: AIR FORCE EASTERN TEST RANGE (AFETR)
Your satellite tracking list
Your tracking list is empty




NASA's NSSDC Master Catalog

Two Line Element Set (TLE):
1 51055U 22002BZ  23270.46624605  .00062127  00000-0  16970-2 0  9992
2 51055  97.4310 339.2658 0005268 223.1575 136.9257 15.37170728 94483
Source of the keplerian elements: AFSPC